Home > Weather > Kinshasa > Past weeks

Flag for Congo Dem. Rep. Past Weather in Kinshasa, Congo Dem. Rep. — Yesterday and Last 2 Weeks

Now
70 °F

Mostly cloudy.


Feels Like: 70 °F
Forecast: 67 / 88 °F
Wind: 6 mph from Northwest

Location: Brazzaville / Maya-Maya

Current Time: Jul 29, 2016 at 11:15:29 AM

Latest Report: Jul 29, 2016 at 10:00 AM


Visibility: 4 mi

Pressure: 30.07 "Hg

Humidity: 78%

Dew Point: 63 °F

Location of KinshasaLocation

Past Weather in Kinshasa — Graph

°F

Kinshasa Temperature Yesterday

Maximum temperature yesterday: 84 °F (at 3:00 PM)
Minimum temperature yesterday: 63 °F (at 6:00 AM)
Average temperature yesterday: 72 °F

High & Low Weather Summary for the Past Weeks

 TemperatureHumidityPressure
High88 °F (Jul 15, 4:00 PM)100% (Jul 17, 6:00 AM)30.07 "Hg (Jul 17, 6:00 AM)
Low63 °F (Jul 25, 5:00 AM)43% (Jul 20, 4:00 PM)29.80 "Hg (Jul 15, 4:00 PM)
Average73 °F76%29.97 "Hg
* Reported Jul 14 9:00 AM — Jul 29 9:00 AM, Kinshasa, Weather by CustomWeather, © 2016

Note: Actual official high and low records may vary slightly from our data, if they occured in-between our weather recording intervals... More about our weather records

Advertising

Kinshasa Weather History for the Previous 24 Hours

Scroll right to see more
 ConditionsComfort  
Time TempWeatherWind HumidityBarometerVisibility
9:00 AM
Fri, Jul 29
68 °FMore clouds than sun.7 mph83%30.07 "Hg4 mi
8:55 AM68 °FMore clouds than sun.7 mph83%30.07 "Hg4 mi
8:00 AM66 °FFog.5 mph83%30.04 "Hg2 mi
7:00 AM64 °FMore clouds than sun.3 mph88%30.01 "Hg4 mi
6:00 AM64 °FMostly cloudy.No wind88%29.98 "Hg4 mi
5:00 AM64 °FClear.No wind88%29.95 "Hg4 mi
4:00 AM66 °FClear.2 mph83%29.98 "Hg4 mi
3:00 AM66 °FClear.3 mph83%29.98 "Hg4 mi
2:00 AM66 °FClear.No wind83%29.98 "Hg4 mi
1:00 AM68 °FClear.3 mph78%30.01 "Hg4 mi
12:00 AM68 °FClear.3 mph83%30.01 "Hg4 mi
11:00 PM
Thu, Jul 28
70 °FClear.3 mph78%30.01 "Hg4 mi
10:00 PM72 °FClear.3 mph73%30.01 "Hg4 mi
9:00 PM72 °FClear.3 mph73%29.98 "Hg4 mi
8:00 PM73 °FClear.6 mph69%29.98 "Hg4 mi
7:00 PM75 °FClear.6 mph65%29.95 "Hg4 mi
6:00 PM79 °FClear.10 mph58%29.92 "Hg4 mi
5:00 PM81 °FClear.12 mph58%29.89 "Hg5 mi
4:00 PM82 °FClear.13 mph51%29.89 "Hg5 mi
3:00 PM84 °FClear.10 mph51%29.89 "Hg5 mi
2:00 PM82 °FClear.10 mph55%29.92 "Hg5 mi
1:00 PM82 °FClear.10 mph51%29.95 "Hg5 mi
12:00 PM79 °FClear.5 mph61%29.98 "Hg5 mi
11:00 AM75 °FScattered clouds.6 mph65%30.04 "Hg5 mi
Weather by CustomWeather, © 2016

See weather overviewHow to use our weather pages